Terug naar catalogus

COSMOS 886 DEB

ActiefLEO
NORAD 9655·DEBRIS·🇷🇺 Russia

Gelanceerd Dec 27, 1976 vanaf Baikonur Cosmodrome

Loading…

Volgende Passages (komende 24 uur)

TLE

VersSource: Space-Track

Epoch: Sep 14, 2026, 14:29 UTC

1 09655U 76126M   26257.60410176  .00004145  00000-0  73741-3 0  9993
2 09655  65.7846 215.5358 0639424  46.1399 319.0702 13.84034123401806

Volg COSMOS 886 DEB in realtime met AllMySat

Download on the App Store